Regional Weather Roundup
Issued by NWS

Home | Current Version | Previous Version | Graphics & Text | Print | Product List | Glossary On
Versions: 1 2 3 4 5 6 7 8 9 10 11 12 13 14 15 16 17 18 19 20 21 22 23 24 25 26 27 28 29 30 31 32 33 34 35 36 37 38 39 40 41 42 43 44 45 46 47 48 49 50
000
ASUS45 KABQ 301501
RWRNM
NEW MEXICO REGIONAL WEATHER ROUNDUP
NATIONAL WEATHER SERVICE ALBUQUERQUE NM
900 AM MDT SUN AUG 30 2015

NOTE: "FAIR" MEANS FEW OR NO CLOUDS BELOW 12,000 FEET AGL WITH NO
       SIGNIFICANT WEATHER OR OBSTRUCTIONS TO VISION.

      THIS PRODUCT IS RELEASED AS TWO VERSIONS.  ONE VERSION NEAR
      THE TOP OF THE HOUR CONTAINING PRELIMINARY DATA FROM ALBUQUERQUE
      AND OTHER STATIONS.  A FINAL VERSION WITH ADDITIONAL DATA IS
      ISSUED ABOUT 10 MINUTES AFTER THE HOUR.

NMZ501-503-504-510>518-301600-
NORTHWEST PLATEAU/NORTHCENTRAL MOUNTAINS

CITY           SKY/WX    TMP DP  RH WIND       PRES   REMARKS
FARMINGTON     SUNNY     69  47  45 E10       30.22S
SANTA FE       SUNNY     66  49  54 N12       30.31R
TAOS           SUNNY     63  41  45 CALM      30.39S
ANGEL FIRE     FAIR      47  47  98 CALM      30.47S

$$
NMZ402-403-502-505>509-301600-
WESTCENTRAL MOUNTAINS/SOUTHWEST MOUNTAINS

CITY           SKY/WX    TMP DP  RH WIND       PRES   REMARKS
GALLUP         SUNNY     67  47  48 CALM      30.31S
GRANTS         SUNNY     64  50  58 SE7       30.34S
SILVER CITY      N/A     73  54  49 CALM      30.26R

$$
NMZ407-409-411-412-301600-
SOUTHERN DESERTS

CITY           SKY/WX    TMP DP  RH WIND       PRES   REMARKS
DEMING         SUNNY     75  56  51 E7        30.18R
ALAMOGORDO     MOSUNNY   73  55  53 CALM      30.19R
T OR C         SUNNY     74  53  48 VRB5      30.20S

$$
NMZ519>523-301600-
CENTRAL VALLEYS/CENTRAL HIGHLANDS

CITY           SKY/WX    TMP DP  RH WIND       PRES   REMARKS
ALBUQUERQUE    MOSUNNY   71  51  49 NE5       30.26R
DOUBLE EAGLE   MOSUNNY   72  52  49 NE5       30.29R
MORIARTY ARPT  FAIR      63  52  67 CALM      30.32S
CLINES CORNERS SUNNY     70  51  51 W10       30.33S
BELEN          FAIR      71  50  48 CALM      30.25S
SOCORRO        NOT AVBL

$$
NMZ524>526-539-540-301600-
SOUTHCENTRAL MOUNTAINS

CITY           SKY/WX    TMP DP  RH WIND       PRES   REMARKS
RUIDOSO        SUNNY     64  48  55 MISG      30.36S

$$
NMZ527>531-301600-
NORTHEAST HIGHLANDS/NORTHEAST PLAINS

CITY           SKY/WX    TMP DP  RH WIND       PRES   REMARKS
LAS VEGAS      SUNNY     66  48  52 CALM      30.32S
RATON          SUNNY     65  51  60 NE5       30.26S
CLAYTON        SUNNY     71  58  63 SW7       30.19S

$$
NMZ532>537-301600-
EASTCENTRAL PLAINS

CITY           SKY/WX    TMP DP  RH WIND       PRES   REMARKS
TUCUMCARI      SUNNY     73  58  59 VRB3      30.16S
CANNON AFB     NOT AVBL
CLOVIS AIRPORT SUNNY     68  61  77 SW5       30.21S

$$
NMZ028-029-538-301600-
SOUTHEAST PLAINS

CITY           SKY/WX    TMP DP  RH WIND       PRES   REMARKS
ROSWELL        SUNNY     70  58  65 CALM      30.17R
ARTESIA        SUNNY     70  61  73 CALM      30.17S
CARLSBAD       NOT AVBL
HOBBS          SUNNY     72  57  60 CALM      30.19


$$



USA.gov is the U.S. government's official web portal to all federal, state and local government web resources and services.